Humberto de Campos, Brazil
Current Conditions -  °F | °C
As of 4:00 AM on Thursday 18 Dec 2014 (Local Time) from SBSL Reporting Station
Few Clouds Few Clouds  
Wind Chill: 79°   Ceiling: Unl
Heat Index: 81°   Visibility: 6mi
Dew Point: 70°   Wind: 3mph
Humidity: 74%   Direction: 80°E
Pressure: 29.83"   Gusts: NA
Location:  2.6°S, 43.46°W
Report Text: SBSL 180700Z 08003KT 9999 FEW017 26/21 Q1010
Loading
Personal Weather Stations






























Interactive Weather Map New forecast layout! Learn more

10-Day Weather Forecast

Advertisements
Track Severe Weather on mobile